Regional Weather Roundup
Issued by NWS

Home | Current Version | Previous Version | Text Only | Print | Product List | Glossary On
Versions: 1 2 3 4 5 6 7 8 9 10 11 12 13 14 15 16 17 18 19 20 21 22 23 24 25 26 27 28 29 30 31 32 33 34 35 36 37 38 39 40 41 42 43 44 45 46 47 48 49
000
ASPQ40 PGUM 211912
RWRPQ
WEATHER ROUNDUP FOR THE MARIANAS AND MICRONESIA
NATIONAL WEATHER SERVICE TIYAN GU
500 AM CHST WED OCT 22 2014

GUZ001>004-212000-
MARIANA ISLANDS-

CITY           SKY/WX    TMP DP  RH WIND       PRES   REMARKS
GUAM AIRPORT   CLEAR     75  72  88 NE5       29.80S
ANDERSEN AFB   CLEAR     77  72  83 E5        29.80R
ROTA AIRPORT   NOT AVBL
TINIAN AP      NOT AVBL
SAIPAN AP      PTCLDY    79  75  89 CALM      29.78F

$$

PMZ161-212000-
REPUBLIC OF PALAU-

CITY           SKY/WX    TMP DP  RH WIND       PRES   REMARKS
KOROR AP       NOT AVBL
KOROR WSO      MOCLDY    81  77  89 CALM      29.81S

$$

PMZ171>174-212000-
FEDERATED STATES OF MICRONESIA-

CITY           SKY/WX    TMP DP  RH WIND       PRES   REMARKS
YAP AIRPORT    MOCLDY    81  73  78 VRB5      29.78F
CHUUK AP       MOCLDY    79  77  94 VRB3      29.78R
POHNPEI AP     NOT AVBL
POHNPEI WSO    CLEAR     77  73  88 N6        29.82R
KOSRAE AP      NOT AVBL

$$

PMZ181-212000-
REPUBLIC OF THE MARSHALL ISLANDS-

CITY           SKY/WX    TMP DP  RH WIND       PRES   REMARKS
KWAJALEIN AP   CLEAR     82  75  78 SE14      29.82R
MAJURO AP      NOT AVBL
MAJURO WSO     MOCLDY    82  77  83 VRB2      29.83R HX  91

$$




USA.gov is the U.S. government's official web portal to all federal, state and local government web resources and services.